P/2021 HS ( PanSTARRS )

Japanese version
Home page
Updated on January 20, 2022

---------------------------------------------------------------------

* Profile

Discovery Date April 10, 2021
Magnitude 20.9 mag
Discoverer Pan-STARRS 1 telescope (Haleakala)

* Orbital Elements

Epoch 2022 Jan. 21.0 TT = JDT 2459600.5
T 2021 Aug. 6.38206 TT                                  Rudenko
q   0.7964650            (2000.0)            P               Q
n   0.11473441     Peri.   46.08546     +0.60613796     +0.76741557
a   4.1944361      Node   262.39060     -0.77671360     +0.51457344
e   0.8101139      Incl.   12.17103     -0.17120972     +0.38247551
P   8.59
From 180 observations 2021 Apr. 10-Dec. 9, mean residual 0".4.

* Magnitudes Graph

        H = 18.5  G = 0.15

---------------------------------------------------------------------

The orbital elements are published on M.P.E.C. 2021-Y10.
The magnitudes graphs are made with Comet for Windows.

---------------------------------------------------------------------

Copyright(C) Seiichi Yoshida (comet@aerith.net). All rights reserved.